Regional Weather Roundup
Issued by NWS

Home | Current Version | Previous Version | Text Only | Print | Product List | Glossary On
Versions: 1 2 3 4 5 6 7 8 9 10 11 12 13 14 15 16 17 18 19 20 21 22 23 24 25 26 27 28 29 30 31 32 33 34 35 36 37 38 39 40 41 42 43 44 45 46 47 48 49 50
000
ASUS44 KLIX 011510
RWRLA
LOUISIANA WEATHER ROUNDUP
NATIONAL WEATHER SERVICE NEW ORLEANS LA
1000 AM CDT TUE SEP 01 2015

NOTE: "FAIR" INDICATES FEW OR NO CLOUDS BELOW 12,000 FEET WITH NO
      SIGNIFICANT WEATHER AND/OR OBSTRUCTIONS TO VISIBILITY.
      SKY/WX - SKY CONDITION AND SIGNIFICANT WEATHER.
      TMP - AIR TEMPERATURE.    DP   - DEWPOINT TEMPERATURE.
      RH  - RELATIVE HUMIDITY.  PRES - PRESSURE.
      HX  - HEAT INDEX.         WCI  - WIND CHILL INDEX.

*  THESE STATIONS ARE NOT NWS OR FAA STATIONS AND ARE NOT UNDER
   NWS QUALITY CONTROL.

LAZ040-048-061>063-065-066-069-011600-
SOUTHEAST LOUISIANA

CITY           SKY/WX    TMP DP  RH WIND       PRES   REMARKS
N.O. AUDUBON     N/A    N/A N/A N/A MISG        N/A
N.O. INTL ARPT PTSUNNY   86  68  54 CALM      30.09R
N.O. LAKEFRONT MOSUNNY   85  71  63 VRB5      30.10R
N.O. DOWNTOWN* FAIR      86  70  58 SE5       30.11R
RESERVE*       FAIR      87  73  62 N5        30.09S
SLIDELL        SUNNY     85  74  69 SE7       30.09R
BATON ROUGE    MOSUNNY   85  69  58 NE6       30.10R
BOOTHVILLE     MOSUNNY   86  73  65 N5        30.10R
BELLE CHASSE   PTSUNNY   86  70  58 E5        30.09R
BOGALUSA*      NOT AVBL
GALLIANO*      SUNNY     87  71  58 NW6       30.09S
NEW ROADS*     FAIR      82  73  75 NE5       30.10R
GONZALES*      FAIR      84  73  70 E5        30.09R
HAMMOND*       SUNNY     86  70  58 NE5       30.11S
HOUMA*         MOSUNNY   84  73  70 NE7       30.09S
PORT FOURCHON* SUNNY     86  72  62 E6        30.09S

$$

LAZ041-044-053-054-011600-
SOUTHWEST LOUISIANA

CITY           SKY/WX    TMP DP  RH WIND       PRES   REMARKS
LAKE CHARLES   CLOUDY    80  73  79 E7        30.07S
LAFAYETTE      PTSUNNY   83  74  74 E5        30.09R
PATTERSON      MOSUNNY   82  73  74 E6        30.10R
SALT POINT       N/A     84  75  74 VRB5      30.06S
NEW IBERIA     PTSUNNY   85  74  69 E8        30.09S
CHENAULT AIRPK NOT AVBL

$$

LAZ027-028-011600-
CENTRAL LOUISIANA

CITY           SKY/WX    TMP DP  RH WIND       PRES   REMARKS
FORT POLK      CLOUDY    79  75  87 NE3       30.08R
ALEXANDRIA INT CLOUDY    80  74  81 E3        30.08R
ALEXANDRIA     CLOUDY    81  73  76 E5        30.10R

$$

LAZ001-002-011600-
NORTHWEST LOUISIANA

CITY           SKY/WX    TMP DP  RH WIND       PRES   REMARKS
SHREVEPORT     CLOUDY    81  71  71 VRB3      30.09R
BARKSDALE AFB  CLOUDY    79  70  74 CALM      30.09R
DTN SHREVEPORT CLOUDY    78  70  76 E3        30.09R

$$

LAZ014-016-011600-
NORTHEAST LOUISIANA

CITY           SKY/WX    TMP DP  RH WIND       PRES   REMARKS
MONROE         MOSUNNY   82  72  71 CALM      30.11R
TALLULAH       PTSUNNY   84  71  65 CALM      30.10R

$$



USA.gov is the U.S. government's official web portal to all federal, state and local government web resources and services.